Flag for Germany Weather past 2 weeks in Güstrow, Mecklenburg-Western Pomerania, Germany

Now
81 °F

Partly sunny.


Feels Like: 83 °F
Forecast: 63 / 77 °F
Wind: 9 mph from Northeast

Location: Laage

Current Time: Jul 29, 2014 at 1:29:22 PM

Latest Report: Jul 29, 2014 at 12:20 PM


Visibility: N/A

Pressure: 29.83 "Hg

Humidity: 62%

Dew point: 66 °F

Location of GüstrowLocation

Historic Weather in Güstrow — Graph

°F

Güstrow temperature yesterday

Maximum temperature yesterday: 81 °F (at 4:20 PM)
Minimum temperature yesterday: 63 °F (at 4:20 AM)
Average temperature yesterday: 72 °F

Past Weeks' High & Low Weather Summary

 TemperatureHumidityPressure
High84 °F (Jul 19, 2:20 PM)100% (Jul 22, 3:20 AM)30.18 "Hg (Jul 22, 3:20 AM)
Low55 °F (Jul 17, 4:20 AM)35% (Jul 19, 3:20 PM)29.77 "Hg (Jul 14, 12:20 PM)
Average70 °F71%30.02 "Hg
* Reported Jul 14 12:20 PM — Jul 29 12:20 PM, Güstrow, Weather by CustomWeather, © 2014

Note: Actual official high and low records may vary slightly from our data, if they occured in-between our weather recording intervals... More about our weather records

Advertising

Güstrow weather history for previous 24 hours

 ConditionsComfort  
Time TempWeatherWind HumidityBarometerVisibility
12:20 PM
Jul 29
81 °FPartly sunny.9 mph62%29.83 "HgN/A
11:20 AM79 °FPartly sunny.8 mph65%29.83 "HgN/A
10:20 AM75 °FBroken clouds.7 mph78%29.83 "HgN/A
9:20 AM75 °FBroken clouds.7 mph78%29.86 "HgN/A
8:50 AM75 °FScattered clouds.8 mph78%29.83 "Hg4 mi
8:20 AM73 °FFog.7 mph83%29.83 "Hg3 mi
7:20 AM70 °FFog.8 mph94%29.86 "Hg2 mi
6:20 AM66 °FFog.6 mph94%29.86 "Hg1 mi
5:20 AM63 °FFog.1 mph94%29.86 "Hg1 mi
4:20 AM63 °FFog.5 mph94%29.86 "Hg3 mi
3:20 AM66 °FPassing clouds.7 mph88%29.86 "Hg4 mi
2:20 AM64 °FPassing clouds.2 mph94%29.89 "Hg4 mi
1:20 AM64 °FPassing clouds.2 mph94%29.89 "Hg4 mi
12:20 AM68 °FPassing clouds.6 mph83%29.89 "Hg6 mi
11:20 PM
Jul 28
68 °FPassing clouds.6 mph88%29.89 "HgN/A
10:20 PM70 °FPassing clouds.5 mph83%29.89 "HgN/A
9:20 PM73 °FPassing clouds.6 mph74%29.89 "HgN/A
8:20 PM75 °FPassing clouds.6 mph69%29.89 "HgN/A
7:20 PM77 °FPassing clouds.7 mph65%29.89 "HgN/A
6:20 PM77 °FPassing clouds.8 mph69%29.89 "HgN/A
5:20 PM79 °FScattered clouds.7 mph65%29.89 "HgN/A
4:20 PM81 °FScattered clouds.5 mph58%29.89 "HgN/A
3:20 PM79 °FPartly sunny.6 mph61%29.92 "HgN/A
2:20 PM77 °FPartly sunny.2 mph65%29.92 "HgN/A
1:20 PM77 °FBroken clouds.5 mph69%29.92 "HgN/A
Weather by CustomWeather, © 2014

See weather overviewHow to use our weather pages